星链-31350 (STARLINK-31350 )

导读

STARLINK-31350是美国太空探索技术公司(SpaceX)星链(Starlink)星座的一颗卫星,于2024年2月10日发射入轨,归属美国。星链项目旨在打造全球卫星互联网星座,为全球偏远地区、海洋等网络覆盖薄弱区域提供高速互联网接入服务,该卫星是星链组网扩容的重要组成部分,推动星座完成全球覆盖部署。

基本信息
目录编号:
58933
目录名称:
STARLINK-31350
国际标识:
2024-027C
轨道中心:
EARTH
卫星名称:
星链-31350
卫星全名:
星链-31350 (STARLINK-31350 )
卫星状态:
在轨 (已飞行937 天)
发射日期:
2024-02-10 UTC
国别 :
美国 (US)
星等 :
--
轨道信息
数据来源 国际轨道数据
星历时间: 2026-09-03T10:33:00+0800
1天前
查看轨道信息
半长轴: 6840.866km
偏心率: 0.0001468
轨道倾角: 53.161°
近地点辐角 98.556°
升交点赤经 204.691°
平近点角 261.561°
近地点: 461.724km
远地点: 463.734km
周期: 93.848分钟
每日圈数: 15.343914
详细信息
固有亮度:
5
最大亮度:
0.3
卫星平台:
Starlink v2.0 mini
覆盖范围:
全球
运营商:
太空探索技术公司
运营商所在国:
美国
制造商(研发单位):
太空探索技术公司
制造商所在国:
美国
使用方式:
暂无
卫星简介
星链(Starlink)计划是由太空探索技术公司(SpaceX)提出的一个巨型低轨卫星互联网星座项目,计划在2019年至2024年间在太空搭建由约1.2万颗卫星组成的“星链”网络,其中1584颗将部署在地球上空550千米处的近地轨道,并从2020年开始工作。该卫星仍在工作。
2D轨道图
3D轨道图
轨道高度分析图
轨道倾角分析图
轨道综合分析图
查看轨道综合分析图
交会数据列表
事件ID 空间交会对象 最接近时刻(TCA) 交会距离 交会风险概率(CRP) 交会风险指数(CRI) 操作
CDM_260905-055105-893306-689321
2026-09-05T
05:51:08+0000
0.888 km
远距离
2.491312E-5 中风险 0.63
CDM_260903-024505-238305-893321
2026-09-03T
02:45:21+0000
2.866 km
极远距离
1.148297E-6 低风险 0.36
CDM_260903-091005-893306-863322
MISR-C-2 (68633)
2026-09-03T
09:10:29+0000
2.444 km
极远距离
8.313549E-7 极低风险 0.33